1513296001.01,34780,4.69,71718.0,-9.81,-27.93,-28.21,0,*5E
1513296002.28,34781,4.69,71726.0,-9.83,-28.05,-28.43,0,*59
1513296003.49,34782,4.69,71736.8,-9.81,-27.93,-28.37,0,*5B
1513296004.75,34783,4.69,71736.0,-9.81,-28.21,-28.59,0,*54
1513296005.98,34784,4.69,71738.3,-9.79,-27.83,-28.31,0,*5D
1513296007.2,34785,4.69,71736.8,-9.79,-27.35,-27.71,0,*5A
1513296008.49,34786,4.69,71728.3,-9.77,-27.83,-28.21,0,*50
1513296009.69,34787,4.69,71704.0,-9.79,-28.31,-28.69,0,*55
1513296010.9,34788,4.69,71704.5,-9.79,-27.89,-28.31,0,*5B
1513296012.1,34789,4.69,71692.8,-9.79,-28.31,-28.69,0,*5B
1513296013.36,34790,4.69,71670.5,-9.77,-28.43,-28.85,0,*5A
1513296014.64,34791,4.69,71666.8,-9.77,-28.43,-28.75,0,*54
1513296015.9,34792,4.75,71678.5,-9.77,-28.37,-28.59,0,*5A
1513296017.16,34793,4.69,71678.3,-9.77,-28.15,-28.43,0,*50
1513296018.42,34794,4.69,71676.3,-9.77,-28.05,-28.53,0,*57
1513296019.71,34795,4.69,71684.8,-9.77,-28.21,-28.59,0,*5A
1513296020.97,34796,4.69,71668.3,-9.77,-28.43,-28.85,0,*5C
1513296022.2,34797,4.69,71670.0,-9.75,-28.47,-28.85,0,*5B
1513296023.43,34798,4.69,71678.0,-9.75,-28.69,-29.17,0,*52
1513296024.62,34799,4.69,71680.3,-9.79,-28.69,-29.23,0,*58
1513296025.85,34800,4.69,71686.5,-9.75,-28.69,-29.13,0,*58
1513296027.13,34801,4.69,71684.3,-9.77,-28.75,-29.35,0,*52
1513296028.42,34802,4.69,71688.0,-9.77,-28.91,-29.35,0,*5B
1513296029.65,34803,4.69,71698.8,-9.75,-28.97,-29.39,0,*52
1513296030.88,34804,4.69,71704.3,-9.79,-29.01,-29.45,0,*5C
1513296032.15,34805,4.69,71702.0,-9.77,-29.01,-29.57,0,*50
1513296033.38,34806,4.69,71684.3,-9.79,-29.01,-29.45,0,*5E
1513296034.61,34807,4.69,71690.5,-9.79,-29.01,-29.45,0,*5F
1513296035.85,34808,4.69,71688.8,-9.79,-29.01,-29.45,0,*50
1513296037.08,34809,4.69,71704.0,-9.79,-29.01,-29.57,0,*52
1513296038.34,34810,4.69,71696.8,-9.77,-29.01,-29.61,0,*51
1513296039.57,34811,4.69,71704.5,-9.79,-29.07,-29.73,0,*5B
1513296040.78,34812,4.69,71724.0,-9.79,-29.07,-29.61,0,*5B
1513296042.03,34813,4.69,71676.5,-9.79,-29.17,-29.73,0,*58
1513296043.26,34814,4.69,71690.5,-9.79,-29.17,-29.79,0,*55
1513296044.51,34815,4.69,71672.5,-9.79,-29.17,-29.73,0,*5E
1513296045.74,34816,4.69,71686.5,-9.79,-29.07,-29.73,0,*5C
1513296046.97,34817,4.69,71682.5,-9.79,-29.07,-29.73,0,*5D
1513296048.23,34818,4.69,71686.0,-9.79,-29.17,-29.89,0,*56
1513296049.45,34819,4.69,71704.0,-9.79,-29.17,-29.79,0,*58
1513296050.68,34820,4.69,71678.0,-9.81,-29.13,-29.83,0,*54
1513296051.91,34821,4.69,71690.3,-9.81,-29.13,-29.83,0,*55
1513296053.11,34822,4.69,71722.5,-9.81,-29.23,-29.95,0,*52
1513296054.32,34823,4.69,71712.3,-9.81,-29.23,-29.83,0,*54
1513296055.59,34824,4.75,71732.3,-9.81,-29.39,-30.01,0,*5A
1513296056.84,34825,4.69,71710.0,-9.81,-29.29,-30.01,0,*5A
1513296058.09,34826,4.69,71706.5,-9.81,-29.29,-30.01,0,*59
1513296059.35,34827,4.69,71718.5,-9.83,-29.39,-30.11,0,*5A
1513296060.58,34828,4.69,71724.5,-9.81,-29.39,-30.11,0,*57
1513296061.81,34829,4.69,71724.0,-9.83,-29.45,-30.27,0,*5A
1513296063.11,34830,4.69,71720.0,-9.83,-29.51,-30.17,0,*54
1513296064.39,34831,4.69,71724.5,-9.83,-29.51,-30.17,0,*55
1513296065.69,34832,4.69,71684.0,-9.83,-29.51,-30.17,0,*56
1513296066.92,34833,4.69,71678.8,-9.83,-29.61,-30.27,0,*57
1513296068.15,34834,4.69,71678.0,-9.83,-29.61,-30.33,0,*55
1513296069.41,34835,4.69,71654.3,-9.83,-29.51,-30.27,0,*52
1513296070.67,34836,4.69,71676.5,-9.83,-29.51,-30.27,0,*51
1513296071.93,34837,4.69,71688.5,-9.83,-29.51,-30.33,0,*55
1513296073.2,34838,4.69,71692.5,-9.83,-29.51,-30.33,0,*5A
1513296074.43,34839,4.69,71702.5,-9.85,-29.67,-30.39,0,*52
1513296075.67,34840,4.69,71700.0,-9.85,-29.67,-30.51,0,*52
1513296076.95,34841,4.69,71720.3,-9.87,-29.73,-30.55,0,*50
1513296078.21,34842,4.69,71710.3,-9.85,-29.73,-30.61,0,*56
1513296079.47,34843,4.69,71694.5,-9.87,-29.83,-30.55,0,*5D
1513296080.75,34844,4.69,71688.5,-9.87,-29.89,-30.55,0,*50
1513296082.02,34845,4.69,71694.8,-9.85,-29.89,-30.61,0,*54
1513296083.28,34846,4.69,71694.0,-9.87,-29.83,-30.55,0,*58
1513296084.57,34847,4.75,71676.3,-9.87,-29.89,-30.61,0,*54
1513296085.86,34848,4.69,71668.0,-9.87,-30.01,-30.73,0,*50
1513296087.14,34849,4.69,71686.3,-9.87,-30.01,-30.73,0,*51
1513296088.43,34850,4.69,71696.8,-9.87,-30.05,-30.77,0,*59
1513296089.67,34851,4.69,71688.0,-9.89,-30.11,-30.77,0,*53
1513296090.9,34852,4.69,71704.3,-9.89,-30.05,-30.83,0,*5E
1513296092.12,34853,4.69,71676.0,-9.89,-30.11,-30.83,0,*5A
1513296093.33,34854,4.69,71640.3,-9.89,-30.23,-30.83,0,*5C
1513296094.61,34855,4.69,71646.3,-9.91,-30.05,-30.95,0,*57
1513296095.81,34856,4.69,71658.3,-9.89,-30.11,-31.01,0,*54
1513296097.04,34857,4.69,71684.3,-9.89,-30.23,-30.95,0,*58
1513296098.27,34858,4.69,71678.0,-9.91,-30.27,-31.01,0,*56
1513296099.5,34859,4.69,71688.3,-9.91,-30.23,-31.01,0,*53
1513296100.77,34860,4.69,71700.3,-9.91,-30.27,-31.11,0,*5C
1513296102.02,34861,4.69,71688.8,-9.91,-30.39,-31.17,0,*54
1513296103.28,34862,4.69,71696.0,-9.91,-30.23,-31.11,0,*5A
1513296104.53,34863,4.69,71700.5,-9.91,-30.23,-31.11,0,*5B
1513296105.76,34864,4.69,71706.8,-9.95,-30.33,-31.17,0,*5F
1513296106.99,34865,4.69,71698.3,-9.95,-30.33,-31.17,0,*5E
1513296108.26,34866,4.69,71700.3,-9.95,-30.27,-31.23,0,*5F
1513296109.49,34867,4.69,71702.3,-9.95,-30.33,-31.17,0,*5C
1513296110.72,34868,4.69,71686.0,-9.95,-30.33,-31.17,0,*53
1513296111.95,34869,4.69,71684.8,-9.95,-30.33,-31.17,0,*52
1513296113.16,34870,4.69,71680.3,-9.97,-30.33,-31.17,0,*58
1513296114.37,34871,4.69,71684.8,-9.97,-30.33,-31.17,0,*59
1513296115.58,34872,4.69,71680.5,-9.97,-30.33,-31.17,0,*5A
1513296116.81,34873,4.69,71690.5,-9.95,-30.33,-31.17,0,*59
1513296118.04,34874,4.69,71676.0,-9.95,-30.33,-31.17,0,*5E
1513296119.27,34875,4.69,71664.5,-9.97,-30.45,-31.23,0,*5B
1513296120.53,34876,4.69,71694.8,-9.97,-30.51,-31.23,0,*5D
1513296121.74,34877,4.69,71674.0,-9.97,-30.33,-31.17,0,*5F
1513296122.95,34878,4.69,71662.3,-9.97,-30.33,-31.05,0,*53
1513296124.16,34879,4.69,71652.0,-9.97,-30.33,-31.17,0,*51
1513296125.39,34880,4.69,71648.0,-9.97,-30.45,-31.23,0,*51
1513296126.65,34881,4.69,71670.0,-9.97,-30.51,-31.23,0,*55
1513296127.92,34882,4.69,71680.3,-9.97,-30.51,-31.23,0,*56
1513296129.18,34883,4.69,71700.0,-9.97,-30.61,-31.23,0,*54
1513296130.44,34884,4.69,71710.3,-9.97,-30.61,-31.23,0,*53
1513296131.67,34885,4.69,71700.5,-9.97,-30.61,-31.33,0,*53
1513296132.93,34886,4.69,71688.8,-9.97,-30.61,-31.23,0,*51
1513296134.18,34887,4.69,71682.0,-9.99,-30.55,-31.29,0,*53
1513296135.45,34888,4.69,71676.0,-9.99,-30.67,-31.23,0,*57
1513296136.7,34889,4.69,71698.8,-9.99,-30.55,-31.29,0,*5D
1513296137.98,34890,4.69,71720.0,-9.99,-30.51,-31.23,0,*5B
1513296139.22,34891,4.69,71702.8,-10.01,-30.55,-31.29,0,*6D
1513296140.51,34892,4.69,71714.8,-9.99,-30.73,-31.23,0,*59
1513296141.75,34893,4.69,71690.5,-10.01,-30.67,-31.23,0,*64
1513296143.01,34894,4.69,71672.0,-9.99,-30.51,-31.29,0,*55
1513296144.25,34895,4.69,71682.0,-9.99,-30.67,-31.29,0,*51
1513296145.51,34896,4.69,71660.0,-9.99,-30.67,-31.23,0,*58
1513296146.77,34897,4.69,71662.0,-9.99,-30.51,-31.05,0,*58
1513296147.97,34898,4.69,71640.3,-9.97,-30.45,-31.01,0,*58
1513296149.17,34899,4.69,71634.0,-9.97,-30.45,-31.01,0,*59
1513296150.44,34900,4.69,71660.8,-9.99,-30.67,-31.23,0,*56
1513296151.66,34901,4.69,71676.0,-10.01,-30.67,-31.29,0,*64
1513296152.94,34902,4.75,71686.5,-9.99,-30.73,-31.39,0,*5A
1513296154.23,34903,4.69,71684.8,-9.99,-30.77,-31.39,0,*5F
1513296155.45,34904,4.69,71690.0,-10.01,-30.67,-31.29,0,*61
1513296156.67,34905,4.69,71686.8,-10.01,-30.67,-31.29,0,*60
1513296157.93,34906,4.69,71694.0,-10.01,-30.77,-31.39,0,*63
1513296159.2,34907,4.69,71698.8,-10.01,-30.77,-31.39,0,*62
1513296160.45,34908,4.69,71700.5,-10.01,-30.77,-31.45,0,*66
1513296161.69,34909,4.69,71700.8,-10.01,-30.89,-31.45,0,*66
1513296162.94,34910,4.69,71708.5,-10.01,-30.89,-31.45,0,*6E
1513296164.19,34911,4.69,71720.5,-10.01,-30.89,-31.45,0,*6F
1513296165.43,34912,4.69,71724.0,-10.01,-30.77,-31.29,0,*67
1513296166.67,34913,4.69,71714.5,-10.01,-30.89,-31.29,0,*67
1513296167.96,34914,4.69,71708.5,-9.99,-30.89,-31.39,0,*58
1513296169.2,34915,4.69,71714.0,-10.03,-31.01,-31.45,0,*68
1513296170.47,34916,4.69,71712.8,-10.03,-30.95,-31.45,0,*67
1513296171.7,34917,4.69,71720.3,-10.05,-31.01,-31.51,0,*69
1513296172.94,34918,4.69,71728.3,-10.03,-30.83,-31.33,0,*6F
1513296174.21,34919,4.69,71732.5,-10.03,-30.95,-31.29,0,*62
1513296175.42,34920,4.69,71726.5,-10.05,-30.83,-31.33,0,*62
1513296176.66,34921,4.69,71722.3,-10.05,-30.89,-31.33,0,*69
1513296177.9,34922,4.69,71724.0,-10.05,-30.89,-31.33,0,*6A
1513296179.11,34923,4.69,71730.5,-10.05,-31.01,-31.29,0,*61
1513296180.32,34924,4.69,71726.3,-10.05,-31.01,-31.33,0,*6D
1513296181.58,34925,4.75,71718.3,-10.03,-30.95,-31.29,0,*6D
1513296182.85,34926,4.69,71684.3,-10.03,-30.95,-31.29,0,*6E
1513296184.06,34927,4.69,71660.5,-10.05,-31.05,-31.29,0,*61
1513296185.3,34928,4.69,71696.0,-10.07,-31.17,-31.33,0,*64
1513296186.54,34929,4.69,71706.5,-10.05,-31.05,-31.39,0,*6E
1513296187.75,34930,4.69,71702.0,-10.05,-31.17,-31.33,0,*6F
1513296188.98,34931,4.69,71700.5,-10.07,-31.05,-31.33,0,*6F
1513296190.21,34932,4.69,71698.0,-10.07,-31.05,-31.33,0,*6C
1513296191.42,34933,4.69,71704.3,-10.05,-31.17,-31.33,0,*6C
1513296192.63,34934,4.69,71710.5,-10.05,-31.01,-31.33,0,*6C
1513296193.87,34935,4.69,71714.0,-10.07,-31.05,-31.33,0,*6B
1513296195.13,34936,4.69,71720.3,-10.07,-31.05,-31.23,0,*69
1513296196.4,34937,4.69,71732.8,-10.07,-31.05,-31.23,0,*68
1513296197.66,34938,4.69,71732.5,-10.07,-31.05,-31.23,0,*67
1513296198.93,34939,4.69,71732.8,-10.07,-31.17,-31.23,0,*65
1513296200.15,34940,4.69,71672.5,-10.09,-31.05,-31.17,0,*61
1513296201.41,34941,4.69,71648.0,-10.07,-30.89,-31.01,0,*6C
1513296202.66,34942,4.69,71576.0,-10.09,-30.77,-30.83,0,*6B
1513296203.91,34943,4.69,71584.3,-10.07,-30.67,-30.83,0,*65
1513296205.21,34944,4.75,71626.3,-10.07,-30.77,-30.89,0,*69
1513296206.48,34945,4.69,71670.0,-10.07,-30.83,-30.89,0,*63
1513296207.71,34946,4.69,71692.8,-10.09,-31.01,-30.83,0,*6F
1513296208.98,34947,4.69,71710.5,-10.07,-30.77,-30.83,0,*60
1513296210.25,34948,4.69,71722.0,-10.07,-30.77,-30.83,0,*6F
1513296211.5,34949,4.69,71716.5,-10.09,-30.67,-30.61,0,*6D
1513296212.8,34950,4.69,71722.3,-10.07,-30.61,-30.61,0,*6D
1513296214.06,34951,4.69,71730.5,-10.09,-30.61,-30.51,0,*61
1513296215.3,34952,4.75,71732.5,-10.07,-30.45,-30.45,0,*6F
1513296216.53,34953,4.69,71724.3,-10.05,-30.45,-30.17,0,*6B
1513296217.77,34954,4.69,71726.0,-10.05,-30.17,-30.11,0,*6D
1513296219.04,34955,4.69,71698.3,-10.07,-30.33,-30.17,0,*6E
1513296220.27,34956,4.69,71698.8,-10.07,-30.33,-30.11,0,*6B
1513296221.48,34957,4.69,71706.0,-10.05,-30.33,-30.33,0,*68
1513296222.72,34958,4.69,71714.3,-10.03,-30.45,-30.27,0,*65
1513296223.98,34959,4.69,71708.8,-10.07,-30.51,-30.45,0,*61
1513296225.26,34960,4.69,71714.5,-10.03,-30.61,-30.39,0,*67
1513296226.55,34961,4.69,71726.5,-10.03,-30.73,-30.39,0,*65
1513296227.8,34962,4.69,71720.0,-10.05,-30.83,-30.61,0,*62
1513296229.06,34963,4.69,71736.5,-10.03,-30.77,-30.45,0,*68
1513296230.28,34964,4.69,71738.3,-10.05,-30.67,-30.33,0,*69
1513296231.54,34965,4.69,71728.0,-10.03,-30.61,-30.23,0,*69
1513296232.79,34966,4.69,71740.0,-10.05,-30.67,-30.17,0,*6D
1513296234.05,34967,4.69,71718.3,-10.03,-30.55,-30.23,0,*6C
1513296235.26,34968,4.69,71690.8,-10.05,-30.67,-30.27,0,*60
1513296236.52,34969,4.69,71732.0,-10.03,-30.73,-30.27,0,*62
1513296237.74,34970,4.69,71760.0,-10.05,-30.83,-30.45,0,*67
1513296238.96,34971,4.69,71762.8,-10.05,-30.83,-30.33,0,*67
1513296240.18,34972,4.69,71786.5,-10.05,-30.83,-30.27,0,*61
1513296241.44,34973,4.75,71776.8,-10.03,-30.77,-30.23,0,*69
1513296242.69,34974,4.69,71740.8,-10.05,-30.67,-30.17,0,*6E
1513296243.92,34975,4.69,71746.5,-10.05,-30.51,-29.95,0,*68
1513296245.15,34976,4.69,71738.5,-10.05,-30.61,-29.95,0,*68
1513296246.39,34977,4.69,71724.3,-10.05,-30.61,-29.95,0,*69
1513296247.65,34978,4.69,71730.3,-10.03,-30.73,-30.11,0,*67
1513296248.88,34979,4.69,71718.3,-10.05,-30.77,-30.11,0,*64
1513296250.12,34980,4.69,71714.0,-10.05,-30.77,-30.11,0,*62
1513296251.38,34981,4.69,71706.3,-10.03,-30.61,-29.95,0,*66
1513296252.64,34982,4.69,71706.8,-10.05,-30.77,-30.01,0,*61
1513296253.88,34983,4.69,71704.8,-10.05,-30.83,-30.01,0,*6B
1513296255.12,34984,4.69,71674.3,-10.05,-30.67,-30.01,0,*66
1513296256.39,34985,4.69,71676.8,-10.05,-30.77,-30.01,0,*66
1513296257.68,34986,4.69,71678.0,-10.03,-30.61,-29.89,0,*6C
1513296258.89,34987,4.69,71688.0,-10.05,-30.67,-29.95,0,*60
1513296260.16,34988,4.69,71688.5,-10.07,-30.77,-29.83,0,*6B
1513296261.42,34989,4.69,71688.3,-10.07,-30.77,-29.95,0,*6D
1513296262.69,34990,4.69,71682.5,-10.07,-30.77,-29.83,0,*62
1513296263.93,34991,4.69,71678.3,-10.07,-30.67,-29.83,0,*62
1513296265.17,34992,4.69,71672.5,-10.07,-30.67,-29.83,0,*61
1513296266.44,34993,4.69,71674.3,-10.07,-30.67,-29.73,0,*6F
1513296267.68,34994,4.69,71692.0,-10.09,-30.67,-29.73,0,*66
1513296268.94,34995,4.69,71696.5,-10.07,-30.67,-29.73,0,*69
1513296270.2,34996,4.75,71704.5,-10.05,-30.61,-29.73,0,*6E
1513296271.41,34997,4.69,71716.5,-10.05,-30.67,-29.61,0,*6A
1513296272.66,34998,4.69,71714.0,-10.09,-30.51,-29.57,0,*69
1513296273.89,34999,4.75,71726.0,-10.07,-30.45,-29.57,0,*63
1513296275.13,35000,4.69,71732.0,-10.09,-30.51,-29.57,0,*60
1513296276.37,35001,4.69,71744.3,-10.09,-30.51,-29.45,0,*62
1513296277.59,35002,4.69,71690.8,-10.09,-30.45,-29.45,0,*64
1513296278.79,35003,4.69,71660.0,-10.09,-30.45,-29.23,0,*65
1513296280.05,35004,4.69,71652.8,-10.09,-30.51,-29.39,0,*6C
1513296281.33,35005,4.75,71646.5,-10.07,-30.51,-29.29,0,*62
1513296282.56,35006,4.69,71632.5,-10.09,-30.45,-29.29,0,*6A
1513296283.85,35007,4.69,71600.5,-10.13,-30.51,-29.35,0,*68
1513296285.06,35008,4.69,71580.0,-10.09,-30.33,-29.23,0,*6F
1513296286.3,35009,4.69,71596.0,-10.09,-30.27,-29.13,0,*68
1513296287.53,35010,4.69,71640.5,-10.09,-30.33,-29.13,0,*65
1513296288.74,35011,4.69,71656.3,-10.09,-30.33,-28.97,0,*69
1513296289.95,35012,4.69,71704.0,-10.09,-30.11,-29.07,0,*62
1513296291.19,35013,4.69,71658.0,-10.09,-30.17,-29.07,0,*65
1513296292.43,35014,4.69,71662.5,-10.09,-30.17,-29.07,0,*62
1513296293.64,35015,4.75,71678.5,-10.09,-30.11,-28.97,0,*6D
1513296294.88,35016,4.69,71666.0,-10.09,-30.11,-28.91,0,*68
1513296296.13,35017,4.69,71658.5,-10.09,-30.11,-28.91,0,*69
1513296297.39,35018,4.69,71662.8,-10.13,-30.17,-28.97,0,*6D
1513296298.66,35019,4.69,71642.5,-10.13,-30.17,-28.85,0,*6F
1513296299.92,35020,4.69,71626.0,-10.13,-30.17,-28.85,0,*65
1513296301.21,35021,4.69,71610.5,-10.13,-30.17,-28.91,0,*61
1513296302.48,35022,4.69,71580.8,-10.13,-30.17,-28.85,0,*67
1513296303.74,35023,4.69,71572.3,-10.13,-30.05,-28.85,0,*65
1513296305.01,35024,4.69,71592.0,-10.13,-30.05,-28.85,0,*62
1513296306.27,35025,4.69,71598.8,-10.13,-30.17,-28.85,0,*60
1513296307.55,35026,4.69,71590.3,-10.13,-30.05,-28.79,0,*63
1513296308.83,35027,4.69,71578.3,-10.13,-30.05,-28.79,0,*62
1513296310.11,35028,4.69,71604.5,-10.13,-30.01,-28.75,0,*65
1513296311.4,35029,4.69,71644.8,-10.13,-30.01,-28.63,0,*63
1513296312.67,35030,4.69,71610.3,-10.13,-29.79,-28.59,0,*65
1513296313.89,35031,4.75,71610.8,-10.15,-29.57,-28.31,0,*60
1513296315.19,35032,4.69,71636.8,-10.13,-29.51,-28.25,0,*66
1513296316.43,35033,4.69,71664.5,-10.13,-29.45,-28.15,0,*61
1513296317.68,35034,4.69,71654.8,-10.13,-29.45,-28.15,0,*66
1513296318.95,35035,4.75,71650.8,-10.13,-29.45,-28.09,0,*6A
1513296320.2,35036,4.69,71674.0,-10.13,-29.45,-28.15,0,*64
1513296321.43,35037,4.69,71682.0,-10.09,-29.45,-28.15,0,*6E
1513296322.7,35038,4.69,71658.0,-10.09,-29.39,-28.09,0,*67
1513296323.98,35039,4.75,71656.5,-10.09,-29.39,-28.09,0,*66
1513296325.26,35040,4.69,71662.8,-10.09,-29.39,-28.09,0,*68
1513296326.52,35041,4.69,71670.3,-10.09,-29.29,-28.09,0,*68
1513296327.83,35042,4.69,71658.8,-10.13,-29.51,-28.25,0,*61
1513296329.13,35043,4.69,71660.8,-10.13,-29.51,-28.25,0,*60
1513296330.39,35044,4.75,71674.3,-10.13,-29.61,-28.25,0,*64
1513296331.7,35045,4.69,71668.8,-10.13,-29.51,-28.25,0,*66
1513296332.97,35046,4.69,71684.0,-10.13,-29.51,-28.15,0,*66
1513296334.25,35047,4.69,71686.5,-10.13,-29.51,-28.15,0,*67
1513296335.52,35048,4.69,71656.5,-10.13,-29.51,-28.15,0,*68
1513296336.79,35049,4.69,71656.0,-10.13,-29.61,-28.09,0,*67
1513296338.06,35050,4.69,71664.5,-10.13,-29.45,-28.09,0,*69
1513296339.34,35051,4.75,71694.8,-10.13,-29.51,-28.15,0,*60
1513296340.58,35052,4.69,71682.5,-10.15,-29.51,-28.15,0,*65
1513296341.8,35053,4.69,71654.8,-10.15,-29.45,-28.15,0,*61
1513296343.05,35054,4.69,71650.8,-10.13,-29.45,-28.15,0,*60
1513296344.32,35055,4.69,71666.3,-10.13,-29.45,-28.09,0,*6C
1513296345.57,35056,4.69,71670.5,-10.15,-29.51,-28.15,0,*61
1513296346.83,35057,4.69,71670.8,-10.15,-29.39,-28.05,0,*6F
1513296348.11,35058,4.69,71670.8,-10.13,-29.45,-27.99,0,*67
1513296349.37,35059,4.69,71678.5,-10.15,-29.39,-27.99,0,*6B
1513296350.64,35060,4.69,71696.0,-10.15,-29.35,-27.99,0,*6D
1513296351.93,35061,4.69,71676.5,-10.13,-29.29,-27.83,0,*6C
1513296353.2,35062,4.69,71654.8,-10.15,-29.35,-27.99,0,*6F
1513296354.44,35063,4.69,71660.0,-10.15,-29.35,-27.89,0,*6F
1513296355.66,35064,4.69,71648.8,-10.15,-29.23,-27.89,0,*6F
1513296356.89,35065,4.69,71690.3,-10.15,-29.23,-27.83,0,*64
1513296358.13,35066,4.69,71738.0,-10.15,-29.23,-27.83,0,*67
1513296359.38,35067,4.69,71744.8,-10.15,-29.17,-27.83,0,*61
1513296360.59,35068,4.69,71766.3,-10.15,-29.07,-27.71,0,*62
1513296361.83,35069,4.69,71708.5,-10.15,-29.01,-27.67,0,*62
1513296363.04,35070,4.69,71694.3,-10.15,-29.07,-27.71,0,*6B
1513296364.29,35071,4.69,71686.8,-10.13,-28.97,-27.67,0,*63
1513296365.53,35072,4.69,71680.3,-10.15,-29.01,-27.67,0,*68
1513296366.77,35073,4.69,71680.3,-10.19,-29.01,-27.71,0,*62
1513296368.02,35074,4.69,71692.5,-10.19,-28.91,-27.67,0,*6A
1513296369.27,35075,4.69,71694.5,-10.19,-28.91,-27.67,0,*6B
1513296370.5,35076,4.69,71700.3,-10.15,-28.85,-27.61,0,*67
1513296371.75,35077,4.69,71702.3,-10.19,-28.85,-27.61,0,*6A
1513296373.0,35078,4.69,71704.0,-10.19,-28.91,-27.51,0,*63
1513296374.24,35079,4.69,71688.3,-10.19,-28.91,-27.51,0,*62
1513296375.46,35080,4.69,71684.8,-10.19,-28.85,-27.51,0,*61
1513296376.72,35081,4.69,71686.5,-10.21,-28.75,-27.55,0,*60
1513296377.98,35082,4.69,71696.3,-10.15,-28.79,-27.35,0,*6E
1513296379.25,35083,4.69,71704.0,-10.21,-28.75,-27.51,0,*66
1513296380.49,35084,4.69,71706.8,-10.19,-28.63,-27.51,0,*6D
1513296381.72,35085,4.69,71710.5,-10.19,-28.69,-27.45,0,*63
1513296383.01,35086,4.69,71704.0,-10.21,-28.59,-27.39,0,*63
1513296384.28,35087,4.69,71696.0,-10.21,-28.69,-27.39,0,*61
1513296385.57,35088,4.69,71710.8,-10.21,-28.59,-27.35,0,*61
1513296386.84,35089,4.69,71716.5,-10.21,-28.69,-27.39,0,*6F
1513296388.13,35090,4.69,71696.0,-10.21,-28.59,-27.39,0,*64
1513296389.4,35091,4.69,71704.8,-10.21,-28.53,-27.35,0,*63
1513296390.67,35092,4.69,71696.5,-10.21,-28.53,-27.35,0,*60
1513296391.93,35093,4.69,71704.3,-10.19,-28.47,-27.19,0,*61
1513296393.19,35094,4.69,71708.3,-10.21,-28.53,-27.23,0,*61
1513296394.45,35095,4.69,71706.0,-10.19,-28.47,-27.19,0,*67
1513296395.72,35096,4.69,71706.3,-10.21,-28.53,-27.23,0,*63
1513296396.96,35097,4.69,71712.3,-10.19,-28.47,-27.29,0,*66
1513296398.23,35098,4.69,71708.0,-10.21,-28.53,-27.23,0,*6D
1513296399.49,35099,4.69,71708.3,-10.21,-28.53,-27.23,0,*6C
1513296400.76,35100,4.69,71704.8,-10.21,-28.53,-27.23,0,*6D
1513296402.05,35101,4.69,71700.5,-10.21,-28.43,-27.23,0,*6D
1513296403.27,35102,4.69,71706.5,-10.23,-28.37,-27.07,0,*69
1513296404.53,35103,4.69,71708.8,-10.23,-28.43,-27.19,0,*64
1513296405.77,35104,4.69,71702.5,-10.23,-28.25,-27.07,0,*6C
1513296407.03,35105,4.69,71692.0,-10.23,-28.21,-26.93,0,*65
1513296408.28,35106,4.69,71686.3,-10.23,-28.25,-27.03,0,*6A
1513296409.52,35107,4.69,71686.0,-10.23,-28.25,-26.87,0,*66
1513296410.76,35108,4.69,71686.0,-10.23,-28.09,-27.03,0,*6A
1513296411.99,35109,4.69,71678.5,-10.23,-28.15,-26.97,0,*6A
1513296413.23,35110,4.75,71680.0,-10.23,-28.09,-26.87,0,*6E
1513296414.49,35111,4.69,71682.0,-10.25,-28.15,-26.93,0,*61
1513296415.73,35112,4.69,71680.5,-10.23,-28.05,-26.87,0,*60
1513296417.02,35113,4.69,71686.5,-10.25,-28.09,-26.93,0,*6E
1513296418.26,35114,4.69,71692.8,-10.23,-28.09,-26.87,0,*6A
1513296419.5,35115,4.69,71702.8,-10.23,-27.89,-26.77,0,*63
1513296420.76,35116,4.69,71702.5,-10.25,-27.93,-26.81,0,*64
1513296422.03,35117,4.69,71706.3,-10.25,-27.93,-26.81,0,*65
1513296423.3,35118,4.69,71714.0,-10.25,-27.93,-26.93,0,*69
1513296424.58,35119,4.69,71714.8,-10.25,-27.83,-26.81,0,*6A
1513296425.87,35120,4.69,71696.8,-10.25,-27.83,-26.93,0,*63
1513296427.14,35121,4.69,71706.5,-10.25,-27.93,-26.81,0,*60
1513296428.42,35122,4.69,71710.8,-10.25,-27.83,-26.93,0,*61
1513296429.7,35123,4.69,71696.8,-10.25,-27.83,-26.93,0,*60
1513296430.99,35124,4.69,71696.0,-10.25,-27.83,-26.93,0,*67
1513296432.26,35125,4.69,71694.5,-10.25,-27.77,-26.81,0,*6E
1513296433.49,35126,4.69,71690.3,-10.23,-27.77,-26.77,0,*62
1513296434.73,35127,4.69,71712.0,-10.27,-27.77,-26.81,0,*6E
1513296435.97,35128,4.69,71704.5,-10.27,-27.71,-26.81,0,*67
1513296437.25,35129,4.69,71698.5,-10.29,-27.67,-26.77,0,*66
1513296438.52,35130,4.69,71682.8,-10.29,-27.67,-26.77,0,*6E
1513296439.79,35131,4.69,71682.0,-10.27,-27.61,-26.77,0,*67
1513296441.06,35132,4.69,71674.5,-10.27,-27.61,-26.71,0,*62
1513296442.3,35133,4.69,71662.5,-10.27,-27.67,-26.77,0,*63
1513296443.54,35134,4.69,71678.5,-10.27,-27.45,-26.45,0,*65
1513296444.77,35135,4.69,71666.3,-10.27,-27.45,-26.45,0,*64
1513296446.01,35136,4.69,71656.5,-10.27,-27.39,-26.45,0,*6C
1513296447.25,35137,4.69,71662.3,-10.27,-27.39,-26.39,0,*66
1513296448.47,35138,4.69,71648.3,-10.27,-27.29,-26.45,0,*63
1513296449.74,35139,4.75,71646.5,-10.29,-27.29,-26.33,0,*6D
1513296450.98,35140,4.69,71658.3,-10.27,-27.23,-26.39,0,*6D
1513296452.22,35141,4.69,71650.5,-10.27,-27.23,-26.23,0,*67
1513296453.48,35142,4.69,71684.5,-10.27,-27.23,-26.29,0,*6E
1513296454.72,35143,4.75,71686.0,-10.27,-27.23,-26.23,0,*65
1513296455.95,35144,4.69,71702.5,-10.27,-27.23,-26.23,0,*62
1513296457.16,35145,4.75,71698.3,-10.27,-27.13,-26.23,0,*60
1513296458.41,35146,4.69,71704.0,-10.27,-27.29,-26.29,0,*60
1513296459.65,35147,4.69,71706.3,-10.27,-27.13,-26.29,0,*68
1513296460.89,35148,4.69,71706.3,-10.27,-27.13,-26.29,0,*67
1513296462.12,35149,4.69,71702.5,-10.27,-27.13,-26.29,0,*66
1513296463.39,35150,4.69,71704.5,-10.27,-27.23,-26.29,0,*6D
1513296464.62,35151,4.69,71716.3,-10.27,-27.23,-26.23,0,*66
1513296465.83,35152,4.75,71718.5,-10.27,-27.13,-26.23,0,*66
1513296467.12,35153,4.69,71718.0,-10.29,-27.19,-26.33,0,*62
1513296468.36,35154,4.69,71726.3,-10.27,-27.13,-26.29,0,*6A
1513296469.6,35155,4.69,71730.8,-10.27,-27.13,-26.29,0,*6B
1513296470.81,35156,4.69,71730.8,-10.27,-27.13,-26.23,0,*62
1513296472.07,35157,4.69,71732.5,-10.25,-27.13,-26.29,0,*6B
1513296473.34,35158,4.69,71728.8,-10.29,-27.13,-26.29,0,*68
1513296474.61,35159,4.69,71732.5,-10.25,-27.07,-26.29,0,*60
1513296475.85,35160,4.69,71730.3,-10.27,-27.13,-26.29,0,*6D
1513296477.12,35161,4.69,71738.0,-10.27,-26.97,-26.29,0,*61
1513296478.36,35162,4.69,71738.5,-10.27,-26.97,-26.23,0,*68
1513296479.63,35163,4.69,71738.0,-10.29,-27.13,-26.29,0,*60
1513296480.87,35164,4.69,71722.0,-10.27,-27.03,-26.29,0,*68
1513296482.14,35165,4.69,71726.3,-10.29,-27.13,-26.17,0,*6B
1513296483.41,35166,4.69,71726.3,-10.29,-27.03,-26.29,0,*64
1513296484.68,35167,4.75,71728.3,-10.29,-27.03,-26.29,0,*65
1513296485.98,35168,4.75,71736.5,-10.29,-26.97,-26.17,0,*6B
1513296487.25,35169,4.69,71736.5,-10.29,-27.03,-26.13,0,*62
1513296488.54,35170,4.69,71748.8,-10.29,-26.97,-26.17,0,*62
1513296489.84,35171,4.69,71748.8,-10.29,-26.97,-26.17,0,*63
1513296491.09,35172,4.69,71746.8,-10.27,-26.81,-26.07,0,*68
1513296492.38,35173,4.69,71730.8,-10.29,-26.77,-26.13,0,*6B
1513296493.69,35174,4.69,71726.8,-10.29,-26.77,-25.97,0,*63
1513296494.96,35175,4.69,71710.8,-10.29,-26.65,-25.97,0,*61
1513296496.24,35176,4.69,71714.0,-10.29,-26.65,-25.97,0,*62
1513296497.54,35177,4.69,71724.0,-10.29,-26.77,-25.97,0,*60
1513296498.79,35178,4.75,71736.8,-10.31,-26.81,-26.03,0,*61
1513296500.07,35179,4.69,71726.5,-10.29,-26.81,-26.03,0,*69
1513296501.34,35180,4.69,71736.3,-10.29,-26.77,-26.03,0,*66
1513296502.62,35181,4.69,71738.3,-10.29,-26.81,-26.03,0,*6E